Regional Weather Roundup
Issued by NWS

Home | Current Version | Previous Version | Text Only | Print | Product List | Glossary On
Versions: 1 2 3 4 5 6 7 8 9 10 11 12 13 14 15 16 17 18 19 20 21 22 23 24 25 26 27 28 29 30 31 32 33 34 35 36 37 38 39 40 41 42 43 44 45 46 47 48 49 50
000
ASUS46 KSTO 051709
RWRCA

NORTHERN AND CENTRAL CA REGIONAL WEATHER ROUNDUP
NATIONAL WEATHER SERVICE SACRAMENTO CA
1000 AM PDT SAT SEP 05 2015

NOTE: FAIR INDICATES FEW OR NO CLOUDS BELOW 12,000 FEET WITH NO
SIGNIFICANT WEATHER AND/OR OBSTRUCTIONS TO VISIBILITY.

CAZ001-003-051800-
NORTHWEST AREA

CITY           SKY/WX    TMP DP  RH WIND       PRES   REMARKS
CRESCENT CITY  SUNNY     60  49  66 N12       30.14R
ARCATA         NOT AVBL
SHELTER COVE   NOT AVBL
UKIAH          SUNNY     60  42  51 CALM      30.03S
$$

CAZ006-505>513-051800-
BAY AREA

CITY           SKY/WX    TMP DP  RH WIND       PRES   REMARKS
SANTA ROSA     MOSUNNY   68  42  38 N7        29.98R
SAN RAFAEL     N/A       61  MM  MM MISG
NAPA           SUNNY     62  46  55 SW6       30.00R
CONCORD        SUNNY     67  46  47 CALM      29.99R
OAKLAND CITY   N/A       64  MM  MM MISG
OAKLAND        MOSUNNY   63  51  65 SW5       29.99S
SAN FRAN CITY  N/A       63  MM  70 MISG
SAN FRAN ARPT  MOSUNNY   64  53  67 N3        30.00R
LIVERMORE      SUNNY     71  39  31 VRB5      29.98S
HAYWARD        SUNNY     64  49  57 VRB3      29.99S
REDWOOD CITY   N/A       MM  MM  MM MISG
MOFFETT ARPT   SUNNY     68  44  42 N7        29.99S
SAN JOSE ARPT  MOSUNNY   63  49  60 CALM      29.98S
$$
CAZ034-037-514>518-051800-
CENTRAL COAST

CITY           SKY/WX    TMP DP  RH WIND       PRES   REMARKS
WATSONVILLE    SUNNY     66  51  58 VRB3      29.98R
SALINAS        SUNNY     61  50  67 E5        29.97S
MONTEREY       SUNNY     63  51  65 W6        29.97S
PT PIEDRAS BLS NOT AVBL
SAN LUIS OBISP SUNNY     67  46  47 NW7       29.96R
SANTA MARIA    SUNNY     65  52  62 W6        29.96R
$$
CAZ015-016-051800-
NORTHERN SACRAMENTO VALLEY

CITY           SKY/WX    TMP DP  RH WIND       PRES   REMARKS
REDDING        SUNNY     69  34  27 N15G30    30.03R
RED BLUFF      SUNNY     71  35  26 N14       30.03R
OROVILLE       SUNNY     68  40  35 NW9       30.00R
$$
CAZ016>018-051800-
SOUTHERN SACRAMENTO VALLEY

CITY           SKY/WX    TMP DP  RH WIND       PRES   REMARKS
AUBURN         SUNNY     68  32  26 W5        29.99R
BEALE AFB      SUNNY     66  44  46 NW9       29.97R
LINCOLN        FAIR      68  43  40 N12       29.97R
MARYSVILLE     SUNNY     68  41  37 NW9       29.99R
SAC INTL ARPT  SUNNY     68  43  40 N14       29.98R
MATHER AIRPORT SUNNY     66  41  39 N7        29.97
DOWNTOWN SAC   N/A       66  MM  MM MISG
SAC EXEC ARPT  SUNNY     71  42  35 N10       29.98R
VACAVILLE      SUNNY     73  36  25 N12G18    29.99R
TRAVIS AFB     SUNNY     71  37  29 N14G23    29.96S
$$
CAZ019>021-051800-
SAN JOAQUIN VALLEY

CITY           SKY/WX    TMP DP  RH WIND       PRES   REMARKS
STOCKTON       SUNNY     67  49  52 NW9       29.98R
MODESTO        SUNNY     67  48  50 NW14      29.96R
MERCED         SUNNY     67  48  50 NW14      29.95R
LEMOORE        SUNNY     70  43  37 N15       29.97R
FRESNO         MOSUNNY   68  43  40 NW14      29.96R
HANFORD        SUNNY     69  45  41 NW12      29.96R
PORTERVILLE    SUNNY     66  43  42 W6        29.97R
BAKERSFIELD    SUNNY     72  41  32 VRB3      29.95R
$$
CAZ011-012-071-051800-
NORTHERN MOUNTAINS

CITY           SKY/WX    TMP DP  RH WIND       PRES   REMARKS
YREKA          SUNNY     54  36  50 VRB6      30.16S
MOUNT SHASTA   SUNNY     52  36  54 VRB6      30.14R
ALTURAS        SUNNY     46  37  71 CALM      30.15R
$$
CAZ011-012-071-051800-
SIERRA NEVADA MTNS

CITY           SKY/WX    TMP DP  RH WIND       PRES   REMARKS
BLUE CANYON    SUNNY     55  19  24 S3        30.10R
TRUCKEE        SUNNY     45  19  36 CALM      30.11R
TAHOE VLY ARPT SUNNY     59   7  12 S16G24    30.07R
MAMMOTH LAKES  FAIR      61  27  27 SE6       30.10R
$$




USA.gov is the U.S. government's official web portal to all federal, state and local government web resources and services.